EW7067 Weather Reports


Display with metric or nautical units.
time (UTC)temp
F
wind
direction
speed
MPH
gust
MPH
rain 1hr
in
rain 24hr
in
rain mn
in
humidity
%
barometer
mb
20260508135556 59 342 0.0 2.0 0.00 0.03 0.00 65 973.5
20260508135049 59 342 0.0 2.0 0.00 0.03 0.00 69 973.5
20260508134544 59 342 0.0 0.0 0.00 0.03 0.00 70 973.6
20260508134038 58 342 0.0 3.0 0.00 0.03 0.00 72 973.5
20260508133531 57 342 1.0 4.0 0.00 0.03 0.00 74 973.4
20260508133027 57 342 1.0 4.0 0.00 0.03 0.00 77 973.3
20260508132520 56 342 1.0 4.0 0.00 0.03 0.00 80 973.3
20260508132014 55 342 0.0 3.0 0.00 0.03 0.00 85 973.3
20260508131508 54 42 0.0 2.0 0.00 0.03 0.00 89 973.3
20260508131002 53 42 0.0 0.0 0.00 0.03 0.00 93 973.3
20260508130456 53 42 0.0 0.0 0.00 0.03 0.00 92 973.3
20260508125950 52 42 0.0 0.0 0.00 0.03 0.00 91 973.3
20260508125444 51 42 0.0 0.0 0.00 0.03 0.00 90 973.3
20260508124938 50 42 0.0 0.0 0.00 0.03 0.00 89 973.3
20260508123420 48 42 0.0 0.0 0.00 0.04 0.00 89 973.3
20260508122914 47 42 0.0 0.0 0.00 0.04 0.00 90 973.2
20260508122408 47 42 0.0 0.0 0.00 0.04 0.00 90 973.1
20260508121902 46 42 0.0 0.0 0.00 0.05 0.00 90 973.1
20260508121356 45 42 0.0 0.0 0.00 0.06 0.00 90 973.1
20260508120850 44 42 0.0 0.0 0.00 0.06 0.00 90 972.9
20260508120344 44 42 0.0 0.0 0.00 0.07 0.00 90 972.9
20260508115838 43 42 0.0 0.0 0.00 0.09 0.00 90 972.9
20260508115331 43 42 0.0 0.0 0.00 0.10 0.00 90 972.8
20260508114825 43 42 0.0 0.0 0.00 0.11 0.00 91 972.7
20260508114319 43 42 0.0 0.0 0.00 0.12 0.00 91 972.6
20260508113308 42 42 0.0 0.0 0.00 0.13 0.00 91 972.5
20260508112801 42 42 0.0 0.0 0.00 0.14 0.00 91 972.4
20260508112255 41 42 0.0 0.0 0.00 0.14 0.00 91 972.3
20260508111749 40 42 0.0 0.0 0.00 0.16 0.00 91 972.3
20260508111245 40 42 0.0 0.0 0.00 0.16 0.00 91 972.3
20260508110738 40 42 0.0 0.0 0.00 0.17 0.00 91 972.2
20260508110232 40 42 0.0 0.0 0.00 0.17 0.00 91 972.2
20260508105726 40 42 0.0 0.0 0.00 0.17 0.00 91 972.1
20260508104714 40 42 0.0 0.0 0.00 0.17 0.00 91 972.0
20260508104208 40 42 0.0 0.0 0.00 0.17 0.00 91 971.7
20260508103702 40 42 0.0 0.0 0.00 0.17 0.00 91 971.6
20260508103156 40 42 0.0 0.0 0.00 0.17 0.00 92 971.5
20260508102650 40 42 0.0 0.0 0.00 0.17 0.00 91 971.5
20260508102144 40 42 0.0 0.0 0.00 0.17 0.00 91 971.5
20260508101638 40 42 0.0 0.0 0.00 0.17 0.00 91 971.4
20260508101132 40 42 0.0 0.0 0.00 0.17 0.00 91 971.4
20260508100626 40 42 0.0 0.0 0.00 0.17 0.00 91 971.3
20260508100122 40 42 0.0 0.0 0.00 0.17 0.00 91 971.3
20260508095622 40 42 0.0 0.0 0.00 0.17 0.00 91 971.2
20260508095119 40 42 0.0 0.0 0.00 0.17 0.00 92 971.2
20260508094118 40 42 0.0 0.0 0.00 0.17 0.00 92 971.1
20260508093617 40 42 0.0 0.0 0.00 0.17 0.00 92 971.1
20260508093117 40 42 0.0 0.0 0.00 0.17 0.00 92 971.1
20260508092615 41 42 0.0 0.0 0.00 0.17 0.00 92 971.0
20260508092114 41 42 0.0 0.0 0.00 0.17 0.00 92 971.0
20260508091614 41 42 0.0 0.0 0.00 0.17 0.00 92 971.0
20260508091112 41 42 0.0 0.0 0.00 0.17 0.00 92 971.0
20260508090611 41 42 0.0 0.0 0.00 0.17 0.00 92 970.9
20260508090112 42 42 0.0 0.0 0.00 0.17 0.00 92 970.8
20260508085610 42 42 0.0 0.0 0.00 0.17 0.00 92 970.8
20260508085107 42 42 0.0 1.0 0.00 0.17 0.00 92 970.7
20260508084608 42 42 0.0 1.0 0.00 0.17 0.00 92 970.7
20260508084110 42 42 0.0 0.0 0.00 0.17 0.00 92 970.8
20260508083603 42 42 0.0 0.0 0.00 0.17 0.00 92 970.8
20260508083104 42 42 0.0 0.0 0.00 0.17 0.00 92 970.8
20260508082603 42 42 0.0 0.0 0.00 0.17 0.00 92 970.7
20260508082103 42 42 0.0 0.0 0.00 0.17 0.00 92 970.6
20260508081602 42 42 0.0 0.0 0.00 0.17 0.00 92 970.6
20260508081102 42 42 0.0 0.0 0.00 0.17 0.00 92 970.6
20260508080602 42 42 0.0 0.0 0.00 0.17 0.00 92 970.5
20260508080101 42 42 0.0 0.0 0.00 0.17 0.00 92 970.5
20260508075602 42 42 0.0 0.0 0.00 0.17 0.00 92 970.5
20260508075101 42 42 0.0 0.0 0.00 0.17 0.00 92 970.4
20260508074056 42 42 0.0 0.0 0.00 0.17 0.00 92 970.4
20260508073553 43 42 0.0 0.0 0.00 0.17 0.00 92 970.4
20260508073055 43 42 0.0 0.0 0.00 0.17 0.00 92 970.4
20260508072054 43 42 0.0 0.0 0.00 0.17 0.00 92 970.3
20260508071553 43 42 0.0 0.0 0.00 0.17 0.00 92 970.3
20260508071054 43 42 0.0 0.0 0.00 0.17 0.00 92 970.4
20260508070553 43 42 0.0 0.0 0.00 0.17 0.00 92 970.3
20260508070054 43 42 0.0 0.0 0.00 0.17 0.00 92 970.2
20260508065554 43 42 0.0 0.0 0.00 0.18 0.00 92 970.3
20260508064553 43 42 0.0 0.0 0.00 0.18 0.00 92 970.1
20260508064053 43 42 0.0 0.0 0.00 0.19 0.00 92 970.1
20260508063554 43 42 1.0 3.0 0.00 0.20 0.00 92 970.1
20260508063054 44 42 0.0 3.0 0.00 0.20 0.00 93 970.1
20260508062553 44 44 0.0 0.0 0.00 0.20 0.00 92 970.0
20260508062054 44 44 0.0 0.0 0.00 0.20 0.00 92 970.0
20260508060053 44 44 0.0 0.0 0.00 0.20 0.00 93 970.2
20260508055554 44 44 0.0 0.0 0.00 0.20 0.00 93 970.0
20260508055053 44 44 0.0 0.0 0.00 0.20 0.00 93 970.0
20260508054052 44 44 0.0 0.0 0.00 0.20 0.00 93 970.0
20260508053551 44 44 0.0 0.0 0.00 0.20 0.00 93 970.0
20260508053048 44 44 0.0 0.0 0.00 0.20 0.00 93 969.9
20260508052546 45 44 0.0 0.0 0.00 0.21 0.00 93 969.9
20260508052045 45 44 0.0 0.0 0.00 0.22 0.00 93 969.8
20260508051546 45 44 0.0 0.0 0.00 0.23 0.00 93 969.9
20260508051046 45 44 0.0 0.0 0.00 0.23 0.00 93 969.8
20260508050546 45 44 0.0 0.0 0.00 0.23 0.00 93 969.7
20260508050043 45 44 0.0 0.0 0.00 0.23 0.00 93 969.7
20260508045543 45 44 0.0 0.0 0.00 0.23 0.00 93 969.7
20260508045044 45 44 0.0 0.0 0.00 0.23 0.00 93 969.6
20260508044539 45 44 0.0 0.0 0.00 0.23 0.00 93 969.6
20260508044040 46 44 0.0 0.0 0.00 0.24 0.00 93 969.6
20260508043537 46 44 0.0 0.0 0.00 0.24 0.00 93 969.6
20260508043035 46 44 0.0 0.0 0.00 0.26 0.00 93 969.7
20260508042533 46 44 0.0 0.0 0.00 0.26 0.00 93 969.7
20260508042031 46 44 0.0 0.0 0.00 0.27 0.00 93 969.6
20260508041529 46 44 0.0 0.0 0.00 0.27 0.00 93 969.5
20260508041027 46 44 0.0 0.0 0.00 0.27 0.00 93 969.5
20260508040526 46 44 0.0 0.0 0.00 0.27 0.00 93 969.5
20260508035520 47 44 0.0 0.0 0.00 0.27 0.27 93 969.5
20260508034521 47 44 0.0 0.0 0.00 0.27 0.27 94 969.5
20260508034020 47 44 0.0 0.0 0.00 0.27 0.27 94 969.4
20260508033519 47 44 0.0 0.0 0.00 0.27 0.27 94 969.4
20260508033020 47 44 0.0 0.0 0.00 0.27 0.27 93 969.4
20260508032019 47 44 0.0 3.0 0.00 0.27 0.27 93 969.4
20260508031520 48 44 0.0 2.0 0.00 0.27 0.27 93 969.4
20260508031020 48 44 0.0 3.0 0.00 0.27 0.27 93 969.3
20260508030018 48 0 0.0 0.0 0.00 0.27 0.27 92 969.3
20260508025516 49 0 0.0 0.0 0.00 0.27 0.27 92 969.1
20260508025013 49 0 0.0 0.0 0.00 0.28 0.27 91 969.1
20260508024512 49 0 0.0 2.0 0.00 0.28 0.27 91 969.1
20260508024010 49 0 1.0 2.0 0.00 0.29 0.27 91 968.9
20260508023008 50 0 0.0 3.0 0.00 0.29 0.27 91 968.9
20260508022507 50 0 0.0 0.0 0.00 0.30 0.27 90 968.8
20260508021506 51 0 1.0 3.0 0.00 0.31 0.27 89 968.7
20260508021009 51 0 1.0 3.0 0.00 0.31 0.27 88 968.6
20260508020005 51 0 0.0 0.0 0.00 0.32 0.27 88 968.4
20260508015503 52 0 1.0 3.0 0.00 0.32 0.27 87 968.2
20260508014956 52 0 2.0 3.0 0.00 0.32 0.27 86 968.2
20260508014451 52 0 2.0 3.0 0.00 0.32 0.27 85 968.1
20260508013944 53 0 2.0 3.0 0.00 0.33 0.27 85 968.0
20260508013440 53 0 2.0 3.0 0.00 0.33 0.27 84 967.9
20260508012933 53 0 2.0 3.0 0.00 0.33 0.27 83 967.9
20260508012427 54 0 1.0 3.0 0.00 0.33 0.27 83 967.7
20260508011920 55 0 0.0 2.0 0.00 0.33 0.27 81 967.6
20260508010909 56 0 0.0 0.0 0.00 0.33 0.27 78 967.5
20260508005856 58 0 0.0 0.0 0.00 0.34 0.27 72 967.3
20260508005351 58 0 0.0 5.0 0.00 0.35 0.27 71 967.2
20260508004338 58 30 1.0 8.0 0.00 0.35 0.27 70 967.3
20260508003833 59 36 1.0 8.0 0.00 0.36 0.27 69 967.1
20260508003326 59 28 1.0 6.0 0.00 0.36 0.27 69 967.1
20260508002314 59 31 3.0 12.0 0.00 0.36 0.27 69 967.0
20260508001808 59 335 2.0 12.0 0.00 0.36 0.27 72 967.1
20260508001302 60 355 3.0 9.0 0.01 0.37 0.27 70 967.1
20260508000756 60 297 4.0 10.0 0.01 0.38 0.27 69 967.2
20260507235744 61 292 5.0 16.0 0.01 0.39 0.27 68 967.1
20260507235238 62 342 5.0 16.0 0.01 0.39 0.27 69 967.1
20260507234734 62 319 4.0 16.0 0.01 0.39 0.27 69 967.0
20260507233721 62 349 5.0 16.0 0.01 0.39 0.27 71 966.9
20260507232709 63 317 7.0 18.0 0.01 0.40 0.27 70 966.8
20260507232203 64 32 7.0 18.0 0.01 0.40 0.27 69 966.6
20260507231657 65 33 6.0 14.0 0.00 0.39 0.26 70 966.5
20260507231151 65 294 4.0 9.0 0.00 0.39 0.26 73 966.4
20260507230644 64 355 3.0 10.0 0.00 0.39 0.26 75 966.3
20260507230139 64 12 3.0 12.0 0.00 0.39 0.26 75 966.2
20260507225634 64 5 3.0 12.0 0.00 0.39 0.26 76 966.1
20260507225127 65 346 1.0 10.0 0.00 0.39 0.26 77 965.9
20260507224621 65 17 0.0 1.0 0.00 0.39 0.26 86 965.8
20260507223609 65 32 0.0 2.0 0.00 0.39 0.26 88 965.7
20260507222050 65 76 3.0 8.0 0.00 0.39 0.26 89 965.4
20260507221544 65 55 3.0 9.0 0.00 0.39 0.26 89 965.3
20260507221038 65 79 3.0 10.0 0.00 0.39 0.26 89 965.1
20260507220027 64 74 2.0 6.0 0.00 0.39 0.26 91 965.1
20260507215521 64 70 3.0 8.0 0.00 0.39 0.26 91 964.9
20260507215014 63 95 4.0 10.0 0.00 0.39 0.26 91 965.0
20260507214508 63 49 4.0 10.0 0.00 0.39 0.26 91 965.1
20260507214002 63 45 4.0 12.0 0.00 0.39 0.26 91 965.1
20260507213457 63 92 2.0 12.0 0.00 0.39 0.26 91 965.0
20260507212951 63 55 1.0 10.0 0.00 0.39 0.26 91 964.8
20260507212444 63 127 2.0 7.0 0.00 0.39 0.26 91 964.6
20260507211939 64 147 2.0 7.0 0.00 0.39 0.26 92 964.7
20260507211432 64 77 3.0 10.0 0.00 0.39 0.26 91 964.7
20260507210421 64 74 5.0 11.0 0.00 0.39 0.26 91 964.5
20260507205915 64 65 5.0 11.0 0.00 0.39 0.26 91 964.4
20260507205409 64 84 4.0 13.0 0.00 0.39 0.26 90 964.5
20260507204357 64 47 6.0 12.0 0.00 0.39 0.26 90 964.2
20260507203345 65 118 6.0 16.0 0.00 0.39 0.26 89 964.0
20260507202843 66 60 7.0 15.0 0.00 0.39 0.26 88 963.9
20260507202343 67 88 8.0 18.0 0.00 0.39 0.26 89 964.0
20260507201843 66 72 8.0 18.0 0.00 0.39 0.26 89 963.9
20260507201343 66 88 8.0 13.0 0.00 0.39 0.26 89 963.8
20260507200345 67 82 7.0 14.0 0.00 0.39 0.26 91 963.8
20260507195842 66 82 8.0 14.0 0.00 0.39 0.26 91 963.8
20260507195343 66 71 9.0 15.0 0.00 0.39 0.26 91 963.6
20260507194843 66 45 9.0 15.0 0.01 0.39 0.26 90 963.6
20260507193843 66 84 8.0 18.0 0.02 0.39 0.26 92 963.7
20260507193343 66 82 7.0 14.0 0.02 0.39 0.26 92 963.7
20260507192843 66 89 8.0 15.0 0.02 0.39 0.26 93 963.8
20260507192343 66 80 9.0 15.0 0.02 0.39 0.26 92 963.9
20260507191343 68 24 5.0 13.0 0.02 0.39 0.26 88 964.0
20260507190337 71 158 0.0 0.0 0.02 0.39 0.26 92 963.9
20260507185837 71 165 0.0 0.0 0.02 0.39 0.26 91 963.6
20260507185337 71 165 0.0 0.0 0.02 0.39 0.26 91 963.6
20260507184835 71 165 0.0 2.0 0.01 0.38 0.25 90 963.4
20260507184335 71 165 1.0 4.0 0.01 0.38 0.25 88 963.5
20260507183837 72 165 1.0 7.0 0.00 0.37 0.24 84 963.4
20260507183333 72 165 1.0 7.0 0.00 0.37 0.24 84 963.8
20260507182833 72 216 0.0 4.0 0.00 0.37 0.24 82 963.7
20260507182331 72 216 1.0 6.0 0.00 0.37 0.24 82 963.6
20260507181830 72 216 2.0 9.0 0.00 0.37 0.24 82 963.7
20260507181330 73 209 2.0 10.0 0.00 0.37 0.24 82 963.7
20260507180829 73 188 2.0 10.0 0.00 0.37 0.24 81 963.6
20260507180328 73 229 1.0 6.0 0.00 0.37 0.24 82 963.5
20260507175329 73 126 2.0 8.0 0.00 0.37 0.24 83 963.7
20260507174324 73 238 2.0 11.0 0.00 0.37 0.24 81 963.7
20260507173824 74 236 2.0 11.0 0.00 0.37 0.24 81 963.7
20260507173325 73 201 2.0 7.0 0.00 0.37 0.24 83 963.7
20260507172824 73 217 2.0 8.0 0.00 0.37 0.24 81 963.7
20260507172324 73 310 2.0 8.0 0.00 0.37 0.24 81 963.9
20260507171326 73 222 1.0 6.0 0.00 0.37 0.24 85 964.0
20260507170321 72 270 3.0 12.0 0.00 0.37 0.24 83 964.1
20260507165320 72 205 2.0 9.0 0.00 0.38 0.24 87 964.3
20260507164821 71 181 2.0 9.0 0.00 0.39 0.24 88 964.4
20260507164321 71 179 2.0 11.0 0.00 0.39 0.24 88 964.6
20260507163321 71 131 2.0 9.0 0.00 0.39 0.24 89 964.7
20260507162820 71 261 2.0 9.0 0.00 0.39 0.24 89 964.7
20260507162322 70 191 1.0 7.0 0.00 0.39 0.24 90 964.8
20260507161818 70 298 1.0 7.0 0.00 0.39 0.24 90 964.9
20260507161317 69 310 1.0 7.0 0.00 0.39 0.24 90 964.8
20260507160816 69 310 1.0 7.0 0.00 0.39 0.24 91 964.7
20260507160317 69 310 1.0 7.0 0.00 0.39 0.24 92 964.8
20260507155816 69 118 0.0 3.0 0.00 0.39 0.24 92 964.7
20260507155317 69 118 0.0 3.0 0.00 0.39 0.24 92 964.7
20260507154818 68 130 0.0 5.0 0.00 0.39 0.24 93 964.6
20260507154316 68 130 0.0 5.0 0.00 0.39 0.24 93 964.4
20260507153816 68 164 0.0 4.0 0.00 0.39 0.24 93 964.6
20260507153316 67 164 1.0 6.0 0.00 0.40 0.24 93 964.6
20260507152816 67 180 0.0 6.0 0.00 0.40 0.24 93 964.6
20260507152315 67 279 0.0 4.0 0.00 0.40 0.24 92 964.8
20260507151313 66 189 1.0 5.0 0.00 0.41 0.24 90 965.3
20260507150812 66 179 0.0 5.0 0.00 0.41 0.24 89 965.1
20260507150310 65 280 0.0 2.0 0.00 0.41 0.24 88 965.0
20260507145811 65 280 1.0 4.0 0.00 0.41 0.24 88 965.0
20260507145308 65 313 1.0 4.0 0.00 0.41 0.24 88 965.1
20260507144807 65 311 0.0 4.0 0.00 0.41 0.24 88 965.2
20260507144306 64 303 0.0 2.0 0.00 0.41 0.24 88 965.4
20260507143807 64 150 0.0 2.0 0.00 0.41 0.24 87 965.5
20260507142806 64 314 0.0 0.0 0.00 0.41 0.24 87 965.4
20260507141754 64 299 0.0 2.0 0.00 0.41 0.24 87 965.4
20260507141248 64 299 0.0 2.0 0.00 0.41 0.24 87 965.6
20260507140742 64 299 0.0 0.0 0.00 0.41 0.24 87 965.3
20260507140236 64 299 0.0 0.0 0.00 0.41 0.24 87 965.3
20260507135730 63 299 0.0 0.0 0.00 0.41 0.24 87 965.0